EW1181 Weather Reports


time (UTC)temp
C
wind
direction
speed
KPH
gust
KPH
rain 1hr
cm
rain 24hr
cm
rain mn
cm
humidity
%
barometer
mb
20260508021015 6 0.0 0.0 0.00 0.15 0.00 98 1014.9
20260508020015 6 0.0 0.0 0.00 0.15 0.00 98 1014.8
20260508015016 6 0.0 1.6 0.00 0.15 0.00 98 1014.8
20260508014015 6 0.0 1.6 0.00 0.15 0.00 98 1014.8
20260508013015 6 0.0 0.0 0.00 0.15 0.00 97 1014.8
20260508012036 6 0.0 0.0 0.00 0.15 0.00 97 1014.8
20260508011015 6 0.0 0.0 0.00 0.15 0.00 96 1014.9
20260508010015 6 0.0 0.0 0.00 0.15 0.00 96 1015.0
20260508005035 6 0.0 0.0 0.00 0.15 0.00 95 1015.0
20260508004015 7 0.0 0.0 0.00 0.15 0.00 93 1015.0
20260508003037 7 0.0 0.0 0.00 0.15 0.00 93 1015.1
20260508002017 7 0.0 0.0 0.00 0.15 0.00 92 1015.2
20260508001017 8 135 1.6 4.8 0.00 0.15 0.00 92 1015.2
20260508000017 8 113 3.2 4.8 0.00 0.15 0.00 93 1015.2
20260507235015 8 113 1.6 4.8 0.00 0.15 0.00 93 1015.1
20260507234037 8 0.0 3.2 0.00 0.15 0.00 92 1015.1
20260507233017 8 0.0 3.2 0.00 0.15 0.00 93 1015.1
20260507232017 8 0.0 0.0 0.00 0.15 0.00 93 1015.2
20260507231017 8 0.0 0.0 0.00 0.15 0.00 93 1015.2
20260507230017 8 0.0 1.6 0.00 0.15 0.15 92 1015.2
20260507225016 8 0.0 0.0 0.00 0.15 0.15 92 1015.1
20260507224015 8 0.0 1.6 0.00 0.15 0.15 93 1015.1
20260507223016 8 0.0 0.0 0.00 0.15 0.15 93 1015.1
20260507222016 8 0.0 0.0 0.00 0.15 0.15 92 1015.0
20260507221017 8 0.0 0.0 0.00 0.15 0.15 92 1015.1
20260507220016 8 0.0 0.0 0.00 0.15 0.15 91 1014.9
20260507215015 8 0.0 0.0 0.00 0.15 0.15 90 1015.0
20260507214015 9 135 1.6 8.0 0.00 0.15 0.15 89 1014.9
20260507213016 9 68 6.4 11.3 0.00 0.15 0.15 89 1014.9
20260507212016 9 68 6.4 11.3 0.00 0.15 0.15 88 1014.9
20260507211035 9 68 4.8 8.0 0.00 0.15 0.15 88 1014.8
20260507210015 9 68 4.8 11.3 0.00 0.15 0.15 88 1014.8
20260507205016 9 45 4.8 9.7 0.00 0.15 0.15 88 1014.6
20260507204017 9 68 4.8 11.3 0.00 0.15 0.15 87 1014.6
20260507203015 10 113 4.8 9.7 0.00 0.15 0.15 87 1014.5
20260507202015 10 135 4.8 14.5 0.00 0.15 0.15 86 1014.4
20260507201015 10 113 6.4 12.9 0.00 0.15 0.15 85 1014.2
20260507200039 10 113 9.7 19.3 0.00 0.15 0.15 84 1014.2
20260507195015 10 90 8.0 19.3 0.00 0.15 0.15 84 1014.2
20260507194039 11 113 6.4 16.1 0.00 0.15 0.15 83 1014.1
20260507193019 11 135 8.0 19.3 0.00 0.15 0.15 82 1014.0
20260507192017 11 135 8.0 14.5 0.00 0.15 0.15 82 1014.0
20260507191017 11 135 8.0 17.7 0.00 0.15 0.15 81 1013.9
20260507190019 11 135 9.7 24.1 0.00 0.15 0.15 81 1013.9
20260507185017 11 135 11.3 24.1 0.00 0.15 0.15 80 1013.8
20260507184037 11 135 11.3 20.9 0.00 0.15 0.15 79 1013.8
20260507183017 11 158 12.9 24.1 0.00 0.15 0.15 79 1013.9
20260507182019 11 135 9.7 24.1 0.00 0.15 0.15 79 1013.9
20260507181040 12 135 11.3 20.9 0.00 0.15 0.15 78 1013.8
20260507180017 12 135 12.9 27.4 0.00 0.15 0.15 78 1013.7
20260507175017 11 135 17.7 32.2 0.00 0.15 0.15 78 1013.6
20260507174017 11 135 19.3 32.2 0.00 0.15 0.15 78 1013.7
20260507173017 11 135 17.7 33.8 0.00 0.15 0.15 77 1013.7
20260507172017 12 158 20.9 37.0 0.00 0.15 0.15 76 1013.7
20260507171017 12 135 22.5 35.4 0.00 0.15 0.15 73 1013.6
20260507170017 12 158 19.3 35.4 0.00 0.15 0.15 75 1013.6
20260507165017 12 135 20.9 35.4 0.00 0.15 0.15 77 1013.6
20260507164017 12 158 24.1 35.4 0.00 0.15 0.15 78 1013.5
20260507163018 12 135 25.7 38.6 0.00 0.15 0.15 77 1013.6
20260507162019 12 158 22.5 35.4 0.00 0.15 0.15 77 1013.7
20260507161019 12 135 22.5 38.6 0.00 0.15 0.15 76 1013.7
20260507160040 12 135 20.9 35.4 0.00 0.15 0.15 75 1013.7
20260507155037 12 158 20.9 38.6 0.00 0.15 0.15 74 1013.6
20260507154017 12 135 20.9 33.8 0.00 0.15 0.15 71 1013.6
20260507153019 13 135 20.9 33.8 0.00 0.15 0.15 74 1013.5
20260507152017 12 135 22.5 38.6 0.00 0.15 0.15 72 1013.4
20260507151017 12 158 24.1 41.8 0.00 0.15 0.15 77 1013.5
20260507150017 12 135 24.1 38.6 0.00 0.15 0.15 77 1013.5
20260507145037 12 135 24.1 38.6 0.00 0.15 0.15 74 1013.5
20260507144037 12 135 20.9 35.4 0.00 0.15 0.15 73 1013.6
20260507143019 13 135 20.9 40.2 0.00 0.15 0.15 74 1013.6
20260507142017 13 135 22.5 37.0 0.00 0.15 0.15 71 1013.6
20260507141017 13 135 19.3 33.8 0.00 0.15 0.15 69 1013.6
20260507140017 13 158 19.3 33.8 0.00 0.15 0.15 70 1013.6
20260507135039 13 135 17.7 35.4 0.00 0.15 0.15 71 1013.7
20260507134017 13 135 19.3 37.0 0.00 0.15 0.15 71 1013.6
20260507133017 13 135 19.3 32.2 0.00 0.15 0.15 72 1013.6
20260507132037 13 135 19.3 32.2 0.00 0.15 0.15 72 1013.5
20260507131018 13 135 16.1 35.4 0.00 0.15 0.15 74 1013.7
20260507130057 13 135 14.5 35.4 0.00 0.15 0.15 73 1013.8
20260507125016 13 68 17.7 33.8 0.00 0.15 0.15 73 1013.8
20260507124016 13 158 14.5 29.0 0.00 0.15 0.15 72 1013.9
20260507123017 12 158 14.5 27.4 0.00 0.15 0.15 72 1013.9
20260507122016 12 135 11.3 22.5 0.00 0.15 0.15 73 1014.0
20260507121016 12 158 14.5 25.7 0.00 0.15 0.15 74 1014.0
20260507120016 12 158 14.5 24.1 0.00 0.15 0.15 73 1014.0
20260507115016 12 135 12.9 22.5 0.00 0.15 0.15 73 1014.0
20260507114018 12 135 16.1 27.4 0.00 0.15 0.15 73 1014.0
20260507113016 12 158 14.5 24.1 0.00 0.15 0.15 75 1014.0
20260507112017 12 158 14.5 29.0 0.00 0.15 0.15 76 1014.0
20260507111017 12 135 14.5 29.0 0.00 0.15 0.15 76 1014.0
20260507110016 12 135 16.1 29.0 0.00 0.15 0.15 76 1014.1
20260507105038 12 135 14.5 30.6 0.00 0.15 0.15 81 1014.1
20260507104017 11 135 14.5 25.7 0.00 0.15 0.15 85 1014.1
20260507103018 10 135 14.5 25.7 0.00 0.15 0.15 97 1014.1
20260507102016 10 135 14.5 22.5 0.00 0.15 0.15 98 1014.1
20260507101016 10 135 12.9 22.5 0.05 0.15 0.15 96 1014.1
20260507100017 10 68 9.7 25.7 0.13 0.15 0.15 97 1014.1
20260507095016 10 135 8.0 20.9 0.13 0.15 0.15 98 1014.1
20260507094018 10 113 6.4 14.5 0.13 0.15 0.15 99 1014.1
20260507093016 10 68 9.7 17.7 0.13 0.15 0.15 99 1014.1
20260507092016 10 113 4.8 17.7 0.15 0.15 0.15 98 1014.1
20260507091016 10 68 9.7 19.3 0.08 0.08 0.08 96 1014.1
20260507090016 10 45 9.7 17.7 0.03 0.03 0.03 94 1014.1
20260507085016 10 45 8.0 19.3 0.03 0.03 0.03 95 1014.0
20260507084016 10 68 6.4 16.1 0.03 0.03 0.03 95 1014.0
20260507083036 10 68 9.7 22.5 0.03 0.03 0.03 93 1014.1
20260507082018 10 68 8.0 19.3 0.00 0.00 0.00 91 1014.1
20260507081016 10 68 11.3 27.4 0.00 0.00 0.00 87 1014.1
20260507080038 11 68 14.5 27.4 0.00 0.00 0.00 79 1014.0
20260507075016 11 68 9.7 20.9 0.00 0.00 0.00 78 1013.9
20260507074016 11 68 11.3 24.1 0.00 0.00 0.00 77 1013.8
20260507073019 11 68 6.4 14.5 0.00 0.00 0.00 80 1013.8
20260507072020 11 68 6.4 12.9 0.00 0.00 0.00 82 1013.8
20260507071016 10 45 8.0 14.5 0.00 0.00 0.00 84 1013.8
20260507070016 10 45 4.8 11.3 0.00 0.00 0.00 86 1013.7
20260507065038 10 45 4.8 12.9 0.00 0.00 0.00 86 1013.7
20260507064016 10 45 4.8 12.9 0.00 0.00 0.00 85 1013.8
20260507063016 11 68 3.2 6.4 0.00 0.00 0.00 85 1013.9
20260507062036 10 45 4.8 9.7 0.00 0.00 0.00 88 1013.9
20260507061016 8 0 4.8 8.0 0.00 0.00 0.00 89 1013.9
20260507060036 8 0.0 4.8 0.00 0.00 0.00 90 1013.9
20260507055017 7 0.0 1.6 0.00 0.00 0.00 93 1013.9
20260507054016 7 0.0 1.6 0.00 0.00 0.00 92 1013.8
20260507053019 8 0.0 4.8 0.00 0.00 0.00 90 1013.7
20260507052039 7 68 1.6 4.8 0.00 0.00 0.00 91 1013.8
20260507051017 8 0.0 4.8 0.00 0.00 0.00 89 1013.7
20260507050036 8 45 3.2 6.4 0.00 0.00 0.00 90 1013.8
20260507045056 7 45 1.6 4.8 0.00 0.00 0.00 91 1013.7
20260507044017 7 0.0 0.0 0.00 0.00 0.00 92 1013.8
20260507043016 7 0.0 0.0 0.00 0.00 0.00 90 1013.7
20260507042016 8 0.0 1.6 0.00 0.00 0.00 89 1013.8
20260507041036 8 45 4.8 11.3 0.00 0.00 0.00 87 1013.7
20260507040017 8 45 3.2 6.4 0.00 0.00 0.00 87 1013.7
20260507035017 8 113 1.6 4.8 0.00 0.00 0.00 87 1013.9
20260507034016 8 68 1.6 4.8 0.00 0.00 0.00 87 1013.8
20260507033016 9 68 3.2 9.7 0.00 0.00 0.00 87 1013.9
20260507032016 9 45 3.2 8.0 0.00 0.00 0.00 87 1013.9
20260507031016 9 113 3.2 9.7 0.00 0.00 0.00 87 1013.9
20260507030016 9 113 3.2 8.0 0.00 0.00 0.00 87 1013.9
20260507025017 9 68 3.2 6.4 0.00 0.00 0.00 87 1014.0
20260507024015 9 113 1.6 6.4 0.00 0.00 0.00 87 1014.0
20260507023016 9 0.0 4.8 0.00 0.00 0.00 87 1014.0
20260507022015 9 0.0 0.0 0.00 0.00 0.00 87 1014.0